Change the Weather History Date:

Saturday, September 1, 2012

  Actual Average Record
Temperature  
Mean Temperature 86 °F 83 °F  
Max Temperature 94 °F 90 °F 96 °F (1963)
Min Temperature 78 °F 76 °F 68 °F (1914)
Degree Days  
Heating Degree Days 0 0  
Month to date heating degree days 0 0  
Since 1 July heating degree days 0 0  
Cooling Degree Days 21 18  
Month to date cooling degree days 21 18  
Year to date cooling degree days 2941 2533  
Growing Degree Days 36 (Base 50)    
Moisture  
Dew Point 71 °F    
Average Humidity 66    
Maximum Humidity 91    
Minimum Humidity 41    
Precipitation  
Precipitation 0.00 in 0.26 in 2.01 in (2006)
Month to date precipitation 0.00 0.26  
Year to date precipitation 44.96 33.98  
Sea Level Pressure  
Sea Level Pressure 30.12 in    
Wind  
Wind Speed 3 mph (ENE)    
Max Wind Speed 12 mph    
Max Gust Speed 15 mph    
Visibility 10 miles    
Events      
T = Trace of Precipitation, MM = Missing Value Source: NWS Daily Summary

Daily Weather History Graph

Daily Weather History Graph

Search for Another Location

Airport or City:

Trip Planner

Search our weather history database for the weather conditions in past years. The results will help you decide how hot, cold, wet, or windy it might be!

Date:

Astronomy

Sep. 01, 2012 Rise Set
Actual Time 7:09 AM EDT 7:50 PM EDT
Civil Twilight 6:45 AM EDT 8:14 PM EDT
Nautical Twilight 6:17 AM EDT 8:42 PM EDT
Astronomical Twilight 5:48 AM EDT 9:10 PM EDT
Moon 8:20 PM EDT (9/1) 8:04 AM EDT (9/1)
Length of Visible Light 13h 29m
Length of Day
12h 41m
Full, 99% of the Moon is Illuminated
Sep 1
Full
Sep 8
Last Quarter
Sep 15
New
Sep 22
First Quarter
Sep 29
Full

Hourly Weather History & Observations

Time (EDT) Temp. Heat Index Dew Point Humidity Pressure Visibility Wind Dir Wind Speed Gust Speed Precip Events Conditions
12:53 AM 82.0 °F 87.4 °F 73.0 °F 74% 30.14 in 10.0 mi East 4.6 mph - N/A   Mostly Cloudy
1:53 AM 81.0 °F 85.8 °F 73.0 °F 77% 30.13 in 10.0 mi Calm Calm - N/A   Mostly Cloudy
2:53 AM 80.1 °F 84.2 °F 73.0 °F 79% 30.13 in 10.0 mi ENE 3.5 mph - N/A   Scattered Clouds
3:53 AM 79.0 °F - 73.9 °F 84% 30.12 in 10.0 mi ENE 3.5 mph - N/A   Scattered Clouds
4:53 AM 79.0 °F - 73.9 °F 84% 30.12 in 10.0 mi Calm Calm - N/A   Partly Cloudy
5:53 AM 78.1 °F - 75.0 °F 90% 30.12 in 10.0 mi Calm Calm - N/A   Clear
6:53 AM 78.1 °F - 75.0 °F 90% 30.13 in 10.0 mi Calm Calm - N/A   Partly Cloudy
7:53 AM 79.0 °F - 75.0 °F 88% 30.14 in 9.0 mi Calm Calm - N/A   Scattered Clouds
8:04 AM 78.8 °F - 75.2 °F 89% 30.15 in 10.0 mi ENE 3.5 mph - N/A   Scattered Clouds
8:53 AM 81.0 °F 86.7 °F 75.0 °F 82% 30.16 in 10.0 mi NE 3.5 mph - N/A   Scattered Clouds
9:53 AM 84.0 °F 90.2 °F 73.0 °F 69% 30.16 in 10.0 mi East 3.5 mph - N/A   Partly Cloudy
10:53 AM 86.0 °F 92.2 °F 72.0 °F 63% 30.17 in 10.0 mi East 4.6 mph - N/A   Scattered Clouds
11:53 AM 89.1 °F 95.0 °F 71.1 °F 55% 30.17 in 10.0 mi Variable 5.8 mph - N/A   Mostly Cloudy
12:53 PM 90.0 °F 93.6 °F 68.0 °F 48% 30.16 in 10.0 mi Calm Calm - N/A   Mostly Cloudy
1:53 PM 91.9 °F 95.9 °F 68.0 °F 45% 30.14 in 10.0 mi Variable 4.6 mph - N/A   Mostly Cloudy
2:53 PM 91.0 °F 95.2 °F 68.0 °F 47% 30.11 in 10.0 mi East 5.8 mph - N/A   Mostly Cloudy
3:53 PM 91.9 °F 94.5 °F 66.0 °F 42% 30.09 in 10.0 mi Calm Calm - N/A   Scattered Clouds
4:53 PM 93.2 °F 96.2 °F 66.2 °F 41% 30.06 in 10.0 mi Variable 3.5 mph - N/A   Scattered Clouds
5:53 PM 91.9 °F 94.5 °F 66.0 °F 42% 30.06 in 10.0 mi NNE 11.5 mph - N/A   Scattered Clouds
6:53 PM 91.4 °F 94.0 °F 66.2 °F 43% 30.05 in 10.0 mi NE 5.8 mph - N/A   Scattered Clouds
7:53 PM 89.1 °F 92.9 °F 68.0 °F 50% 30.06 in 10.0 mi Variable 4.6 mph - N/A   Scattered Clouds
8:53 PM 88.0 °F 90.7 °F 66.9 °F 49% 30.08 in 10.0 mi Calm Calm - N/A   Mostly Cloudy
9:53 PM 86.0 °F 88.8 °F 66.9 °F 53% 30.10 in 10.0 mi East 4.6 mph - N/A   Scattered Clouds
10:53 PM 84.0 °F 87.0 °F 68.0 °F 58% 30.10 in 10.0 mi East 6.9 mph - N/A   Partly Cloudy
11:53 PM 82.9 °F 86.5 °F 69.1 °F 63% 30.10 in 10.0 mi Calm Calm - N/A   Scattered Clouds